LEMUR-2-REDFERN-GOES (42059 NORAD) Tracking and Keplerian Element Data

This shows tracking and keplerian element data for the satellite.

Feedback or suggestion? Click here.




ElementValue
Catalog42059
NameLEMUR-2-REDFERN-GOES
Epoch Orbit7798
Epoch Day198.40676569
Epoch Year2018
RAAN187.9189
Inclination51.6344
Eccentricity0.0005314
Argument of Perigee0.378
Mean Anonmoly359.7224
Mean Motion15.79013201
Decay Rate0.00045762
L11 42059U 98067LA 18198.40676569 .00045762 00000-0 25419-3 0 9998
L22 42059 51.6344 187.9189 0005314 0.3780 359.7224 15.79013201 77981

Live tracking and technical data element details for LEMUR-2-REDFERN-GOES (NORAD 42059). LEMUR-2-REDFERN-GOES can be tracked NOW for your location showing map with azimuth and elevation plus other details from your city location.

Track the satellite on the map from your city or location and see movement details for azimuth, elevation, latitude, longitude, range, height, and movement on the map or in text.







IsCatalogInMostPopularTable: catalog: 42059, numindb: 94
Update: records affected: 1



GetName: 42059 LEMUR-2-REDFERN-GOES

Hit Count: updated at: Thu, 19 Jul 2018 21:24:13 GMT